TDRS 11

Last updated on Thu Nov 21 2024 00:02:35 GMT+0000 (Coordinated Universal Time)

1 39070U 13004A 24325.55178044 .00000079 00000+0 00000+0 0 9991 2 39070 2.8433 17.0234 0001889 57.5905 9.6923 1.00269338 40943
UTC large
Height (km)
Speed (km/s)
/
Latitude / Longitude
Inclination (degrees)
Orbital Period (minutes)
Azimuth
Elevation
Range (km)
Doppler Factor

Next 0 passes for location: London (51.5072 / 0.1276)

Sorry there are no passes over London.